+ View the NASA Portal
+ Center for Near-Earth Object Studies
IMPORTANT:
The SSD Announcement email list is now available. Major changes are coming in the near future, including possible hostname and/or URL changes. To be notified of such changes, subscribe to this email list.
Please visit
this page
for more details.
Don't show this message again
JPL Small-Body Database Browser
Search:
[
help
]
452923 (2006 VU148)
Classification:
Main-belt Asteroid
SPK-ID:
2452923
[
Ephemeris
|
Orbit Diagram
|
Orbital Elements
|
Mission Design
|
Physical Parameters
|
Discovery Circumstances
]
[ show orbit diagram ]
Orbital Elements at Epoch 2458600.5 (2019-Apr-27.0) TDB
Reference:
JPL 14
(heliocentric ecliptic J2000)
Element
Value
Uncertainty (1-sigma)
Units
e
.1278485301792333
7.2713e-08
a
2.809936559124279
4.5197e-08
au
q
2.450690300143348
2.0778e-07
au
i
10.68228779817637
8.6782e-06
deg
node
101.9882857480262
4.3798e-05
deg
peri
346.6980914119592
5.6394e-05
deg
M
201.6060579629788
3.5401e-05
deg
t
p
2459357.471041886997
(2021-May-22.97104189)
0.0001744
TDB
period
1720.454529855854
4.71
4.1509e-05
1.136e-07
d
yr
n
.2092470296382446
5.0485e-09
deg/d
Q
3.169182818105211
5.0975e-08
au
Orbit Determination Parameters
# obs. used (total)
132
data-arc span
7465 days (20.44 yr)
first obs. used
1999-03-21
last obs. used
2019-08-28
planetary ephem.
DE431
SB-pert. ephem.
SB431-N16
condition code
0
norm. resid. RMS
.6203
source
ORB
producer
Otto Matic
solution date
2019-Sep-24 07:57:28
Additional Information
Earth MOID
= 1.46857 au
Jupiter MOID
= 2.02473 au
T_jup
= 3.284
[ show covariance matrix ]
[
Ephemeris
|
Orbit Diagram
|
Orbital Elements
|
Mission Design
|
Physical Parameters
|
Discovery Circumstances
]
Physical Parameter Table
Parameter
Symbol
Value
Units
Sigma
Reference
Notes
absolute magnitude
H
16.2
n/a
MPO437751
452923 (2006 VU148)
Discovered 2006-Nov-13 by CSS at Catalina
Reference:
Last Updated:
2016-01-04
Alternate Designations
2006 VU148
= 2013 GF108
[
Ephemeris
|
Orbit Diagram
|
Orbital Elements
|
Mission Design
|
Physical Parameters
|
Discovery Circumstances
]
2019-Dec-06 23:29 UT
(server date/time)
Site Manager:
Ryan S. Park
Webmaster
:
Alan B. Chamberlin